Powrót do katalogu

STARLINK-34210

AktywnyŁącznośćSSO
NORAD 65653·PAYLOAD·🇺🇸 United States

Wystrzelony Sep 19, 2025 z Vandenberg Space Force Base

Loading…

Następne Przeloty (najbliższe 24 godziny)

TLE

ŚwieżeSource: CelesTrak SupGP

Epoka: Sep 14, 2026, 21:11 UTC

1 65653C 25211B   26257.88312500  .00009632  00000+0  29907-3 0  2571
2 65653  97.2832 298.1875 0001110  97.6741 208.5804 15.33428107    17

Śledź STARLINK-34210 w czasie rzeczywistym z AllMySat

Download on the App Store